Flag for U.S.A. Weather past 2 weeks in El Paso, Texas, U.S.A.

Now
68 °F

Clear.


Feels Like: 68 °F
Forecast: 59 / 81 °F
Wind: 3 mph from Northwest

Location: El Paso International Airport

Current Time: Oct 2, 2014 at 3:32:25 AM

Latest Report: Oct 2, 2014 at 2:51 AM


Visibility: 10 mi

Pressure: 29.75 "Hg

Humidity: 31%

Dew point: 36 °F

Location of El PasoLocation

Historic Weather in El Paso — Graph

°F

El Paso temperature yesterday

Maximum temperature yesterday: 85 °F (at 4:51 PM)
Minimum temperature yesterday: 64 °F (at 7:51 AM)
Average temperature yesterday: 75 °F

Past Weeks' High & Low Weather Summary

 TemperatureHumidityPressure
High90 °F (Sep 29, 3:51 PM)97% (Sep 17, 8:51 PM)30.04 "Hg (Sep 17, 8:51 PM)
Low60 °F (Sep 27, 4:51 AM)15% (Oct 1, 1:51 PM)29.61 "Hg (Sep 30, 5:51 PM)
Average73 °F60%29.86 "Hg
* Reported Sep 17 1:51 AM — Oct 2 1:51 AM, El Paso, Weather by CustomWeather, © 2014

Note: Actual official high and low records may vary slightly from our data, if they occured in-between our weather recording intervals... More about our weather records

Advertising

El Paso weather history for previous 24 hours

 ConditionsComfort  
Time TempWeatherWind HumidityBarometerVisibility
1:51 AM
Oct 2
69 °FClear.3 mph30%29.73 "Hg10 mi
12:51 AM67 °FClear.6 mph33%29.73 "Hg10 mi
11:51 PM
Oct 1
70 °FClear.No wind26%29.72 "Hg10 mi
10:51 PM74 °FClear.3 mph21%29.71 "Hg10 mi
9:51 PM75 °FClear.7 mph21%29.72 "Hg10 mi
8:51 PM79 °FClear.8 mph21%29.70 "Hg10 mi
7:51 PM80 °FClear.13 mph20%29.69 "Hg10 mi
6:51 PM81 °FSunny.12 mph19%29.67 "Hg10 mi
5:51 PM83 °FSunny.8 mph17%29.66 "Hg10 mi
4:51 PM85 °FSunny.13 mph15%29.65 "Hg10 mi
3:51 PM83 °FSunny.13 mph17%29.67 "Hg10 mi
2:51 PM83 °FSunny.12 mph16%29.67 "Hg10 mi
1:51 PM83 °FSunny.16 mph15%29.69 "Hg10 mi
12:51 PM81 °FSunny.13 mph18%29.71 "Hg10 mi
11:51 AM80 °FSunny.15 mph20%29.72 "Hg10 mi
10:51 AM78 °FSunny.13 mph23%29.74 "Hg10 mi
9:51 AM75 °FSunny.5 mph28%29.75 "Hg10 mi
8:51 AM69 °FSunny.No wind36%29.74 "Hg10 mi
7:51 AM64 °FClear.No wind45%29.72 "Hg10 mi
6:51 AM65 °FClear.8 mph36%29.71 "Hg10 mi
5:51 AM66 °FClear.12 mph33%29.68 "Hg10 mi
4:51 AM66 °FClear.9 mph34%29.67 "Hg10 mi
3:51 AM66 °FClear.7 mph34%29.67 "Hg10 mi
Weather by CustomWeather, © 2014

See weather overviewHow to use our weather pages